IZ3TCG-13 Weather Reports


time (UTC)temp
C
wind
direction
speed
KPH
gust
KPH
rain 1hr
cm
rain 24hr
cm
rain mn
cm
humidity
%
barometer
mb
20260507074004 17 245 0.0 3.2 0.00 0.76 0.00 85 1015.1
20260507073817 18 246 1.6 3.2 0.00 0.76 0.00 84 1015.1
20260507073204 18 266 0.0 3.2 0.00 0.76 0.00 84 1015.0
20260507072804 20 351 0.0 3.2 0.00 0.76 0.00 82 1014.9
20260507072404 20 59 0.0 3.2 0.00 0.76 0.00 78 1015.0
20260507072003 19 67 1.6 3.2 0.00 0.76 0.00 82 1015.1
20260507071604 17 0 0.0 0.0 0.00 0.76 0.00 85 1015.0
20260507071203 17 0 0.0 0.0 0.00 0.76 0.00 87 1014.9
20260507070804 17 0 0.0 0.0 0.00 0.76 0.00 87 1014.9
20260507070404 17 22 0.0 3.2 0.00 0.76 0.00 88 1014.7
20260507070008 17 4 0.0 3.2 0.00 0.76 0.00 88 1014.9
20260507065604 17 324 0.0 3.2 0.00 0.76 0.00 90 1014.9
20260507065203 16 260 0.0 3.2 0.00 0.76 0.00 92 1014.7
20260507065014 16 255 0.0 3.2 0.00 0.79 0.00 92 1014.7
20260507064614 16 256 1.6 6.4 0.00 0.79 0.00 92 1014.7
20260507064004 17 264 0.0 6.4 0.00 0.79 0.00 92 1014.7
20260507063603 16 266 3.2 6.4 0.00 0.79 0.00 94 1014.8
20260507063203 16 216 1.6 3.2 0.00 0.79 0.00 95 1014.8
20260507062803 16 0 0.0 0.0 0.00 0.79 0.00 99 1014.5
20260507062403 16 262 0.0 3.2 0.00 0.79 0.00 99 1014.7
20260507062003 15 268 0.0 6.4 0.00 0.79 0.00 99 1014.6
20260507061603 15 267 1.6 6.4 0.00 0.79 0.00 99 1014.7
20260507061204 15 262 0.0 6.4 0.00 0.79 0.00 99 1014.5
20260507060803 15 234 0.0 3.2 0.00 0.79 0.00 99 1014.8
20260507060403 15 219 0.0 3.2 0.00 0.79 0.00 99 1014.7
20260507060003 15 235 0.0 3.2 0.00 0.79 0.00 99 1014.7
20260507055603 14 270 0.0 3.2 0.00 0.79 0.00 99 1014.6
20260507055203 14 272 1.6 3.2 0.00 0.79 0.00 99 1014.5
20260507054803 14 262 0.0 3.2 0.00 0.79 0.00 99 1014.6
20260507054403 14 237 1.6 3.2 0.00 0.79 0.00 99 1014.5
20260507054003 14 248 0.0 6.4 0.00 0.79 0.00 99 1014.4
20260507053603 14 258 0.0 6.4 0.00 0.79 0.00 99 1014.2
20260507053204 13 240 3.2 3.2 0.00 0.79 0.00 99 1014.5
20260507052804 14 234 0.0 3.2 0.00 0.79 0.00 99 1014.4
20260507052616 14 230 0.0 3.2 0.00 0.79 0.00 99 1014.3
20260507052005 14 247 0.0 3.2 0.00 0.79 0.00 99 1014.1
20260507051604 14 0 0.0 0.0 0.00 0.79 0.00 99 1014.2
20260507051203 13 0 0.0 0.0 0.00 0.79 0.00 99 1014.3
20260507050804 13 0 0.0 0.0 0.00 0.79 0.00 99 1014.2
20260507050404 13 0 0.0 0.0 0.00 0.79 0.00 99 1014.0
20260507050004 13 0 0.0 0.0 0.00 0.79 0.00 99 1014.1
20260507045603 13 0 0.0 0.0 0.00 0.79 0.00 99 1013.9
20260507045203 13 270 0.0 3.2 0.00 0.79 0.00 99 1014.0
20260507044804 13 270 0.0 3.2 0.00 0.79 0.00 99 1013.9
20260507044403 13 270 0.0 3.2 0.00 0.79 0.00 99 1014.0
20260507044003 13 270 0.0 3.2 0.00 0.79 0.00 99 1014.0
20260507043604 13 270 0.0 3.2 0.00 0.79 0.00 99 1013.8
20260507043203 13 270 0.0 3.2 0.00 0.79 0.00 99 1013.8
20260507043017 13 270 0.0 3.2 0.00 0.79 0.00 99 1013.8
20260507042403 13 270 1.6 3.2 0.00 0.79 0.00 99 1013.8
20260507042216 13 270 0.0 3.2 0.00 0.79 0.00 99 1013.8
20260507041603 13 0 0.0 0.0 0.00 0.79 0.00 99 1013.7
20260507041204 13 0 0.0 0.0 0.00 0.79 0.00 99 1013.5
20260507040805 13 0 0.0 0.0 0.00 0.79 0.00 99 1013.5
20260507040403 13 0 0.0 0.0 0.00 0.79 0.00 99 1013.6
20260507040004 13 0 0.0 0.0 0.00 0.79 0.00 99 1013.5
20260507035603 13 0 0.0 0.0 0.00 0.79 0.00 99 1013.5
20260507035203 13 0 0.0 0.0 0.00 0.79 0.00 99 1013.5
20260507034803 13 0 0.0 0.0 0.00 0.79 0.00 99 1013.4
20260507034616 13 0 0.0 0.0 0.00 0.79 0.00 99 1013.3
20260507034004 13 0 0.0 0.0 0.00 0.81 0.00 99 1013.7
20260507033603 13 0 0.0 0.0 0.00 0.94 0.00 99 1013.7
20260507033203 13 0 0.0 0.0 0.00 0.97 0.00 99 1013.6
20260507032804 13 0 0.0 0.0 0.00 1.09 0.00 99 1013.5
20260507032403 13 22 0.0 3.2 0.00 1.12 0.00 99 1013.5
20260507032004 13 22 0.0 3.2 0.00 1.12 0.00 99 1013.6
20260507031604 13 22 0.0 3.2 0.00 1.12 0.00 99 1013.4
20260507031204 13 356 0.0 3.2 0.00 1.12 0.00 99 1013.5
20260507030804 13 297 1.6 3.2 0.00 1.12 0.00 99 1013.5
20260507030614 12 286 0.0 3.2 0.00 1.12 0.00 99 1013.4
20260507030004 12 304 0.0 3.2 0.00 1.12 0.00 99 1013.3
20260507025604 12 322 0.0 3.2 0.00 1.12 0.00 99 1013.4
20260507025205 12 351 1.6 3.2 0.00 1.12 0.00 99 1013.3
20260507025017 12 299 0.0 3.2 0.00 1.12 0.00 99 1013.3
20260507024403 12 292 0.0 3.2 0.00 1.12 0.00 99 1013.2
20260507024003 12 0 0.0 0.0 0.00 1.12 0.00 99 1013.3
20260507023604 12 0 0.0 0.0 0.00 1.12 0.00 99 1013.5
20260507023203 12 0 0.0 0.0 0.00 1.12 0.00 99 1013.1
20260507023014 12 0 0.0 0.0 0.00 1.12 0.00 99 1013.2
20260507022403 12 0 0.0 0.0 0.00 1.12 0.00 99 1013.4
20260507022217 12 0 0.0 0.0 0.00 1.12 0.00 99 1013.2
20260507021603 12 0 0.0 0.0 0.00 1.12 0.00 99 1013.4
20260507021204 12 0 0.0 0.0 0.00 1.12 0.00 99 1013.4
20260507020803 12 0 0.0 0.0 0.00 1.12 0.00 99 1013.1
20260507020404 12 0 0.0 0.0 0.00 1.12 0.00 99 1013.4
20260507020004 12 0 0.0 0.0 0.00 1.12 0.00 99 1013.2
20260507015603 12 0 0.0 0.0 0.00 1.12 0.00 99 1013.2
20260507015418 12 0 0.0 0.0 0.00 1.12 0.00 99 1013.4
20260507014804 12 0 0.0 0.0 0.00 1.12 0.00 99 1013.3
20260507014404 12 0 0.0 0.0 0.00 1.12 0.00 99 1013.3
20260507014003 12 0 0.0 0.0 0.00 1.12 0.00 99 1013.2
20260507013603 12 0 0.0 0.0 0.00 1.12 0.00 99 1013.2
20260507013204 12 0 0.0 0.0 0.00 1.12 0.00 99 1013.2
20260507012804 12 0 0.0 0.0 0.00 1.12 0.00 99 1013.1
20260507012614 12 0 0.0 0.0 0.00 1.12 0.00 99 1013.1
20260507012213 12 0 0.0 0.0 0.00 1.12 0.00 99 1013.0
20260507011603 12 0 0.0 0.0 0.00 1.12 0.00 99 1013.2
20260507011205 12 0 0.0 0.0 0.00 1.12 0.00 99 1013.1
20260507010804 13 0 0.0 0.0 0.00 1.12 0.00 99 1012.9
20260507010403 13 0 0.0 0.0 0.00 1.12 0.00 99 1013.1
20260507010215 13 0 0.0 0.0 0.00 1.12 0.00 99 1013.0
20260507005604 13 0 0.0 0.0 0.00 1.12 0.00 99 1013.4
20260507005203 13 270 0.0 3.2 0.00 1.12 0.00 99 1013.3
20260507004804 13 276 0.0 3.2 0.00 1.12 0.00 99 1013.1
20260507004404 13 275 0.0 3.2 0.00 1.12 0.00 99 1013.2
20260507004004 13 270 0.0 3.2 0.00 1.12 0.00 99 1013.0
20260507003604 12 270 0.0 3.2 0.00 1.12 0.00 99 1013.2
20260507003203 12 270 0.0 3.2 0.00 1.12 0.00 99 1013.1
20260507002803 13 270 0.0 3.2 0.00 1.12 0.00 99 1013.2
20260507002403 13 270 0.0 3.2 0.00 1.12 0.00 99 1013.4
20260507002003 12 0 0.0 0.0 0.00 1.12 0.00 99 1013.1
20260507001603 12 0 0.0 0.0 0.00 1.12 0.00 99 1013.0
20260507001412 12 0 0.0 0.0 0.00 1.12 0.00 99 1013.0
20260507000803 13 0 0.0 0.0 0.00 1.12 0.00 99 1013.1
20260507000405 13 0 0.0 0.0 0.00 1.12 0.00 99 1012.9
20260507000216 13 0 0.0 0.0 0.00 1.12 0.00 99 1013.0
20260506235603 13 0 0.0 0.0 0.00 1.12 0.00 99 1013.1
20260506235204 13 0 0.0 0.0 0.00 1.12 0.00 99 1013.2
20260506234804 13 0 0.0 0.0 0.00 1.12 0.00 99 1013.2
20260506234613 13 0 0.0 0.0 0.00 1.12 0.00 99 1012.9
20260506234004 13 282 0.0 3.2 0.00 1.12 0.00 99 1013.1
20260506233604 13 282 0.0 3.2 0.00 1.12 0.00 99 1013.2
20260506233203 13 337 0.0 3.2 0.00 1.12 0.00 99 1013.3
20260506233016 13 0 0.0 0.0 0.00 1.12 0.00 99 1013.2
20260506232404 13 0 0.0 0.0 0.00 1.12 0.00 99 1013.1
20260506232004 13 0 0.0 0.0 0.00 1.12 0.00 99 1013.2
20260506231604 13 0 0.0 0.0 0.00 1.12 0.00 99 1012.9
20260506231413 13 0 0.0 0.0 0.00 1.12 0.00 99 1013.1
20260506230803 13 0 0.0 0.0 0.00 1.12 0.00 99 1013.1
20260506230403 13 0 0.0 0.0 0.00 1.12 0.00 99 1013.3
20260506230004 13 0 0.0 0.0 0.00 1.12 0.00 99 1013.1
20260506225604 13 0 0.0 0.0 0.00 1.12 0.00 99 1013.0
20260506225203 13 0 0.0 0.0 0.00 1.12 0.00 99 1013.0
20260506224803 13 0 0.0 0.0 0.00 1.12 0.00 99 1013.1
20260506224404 13 0 0.0 0.0 0.00 1.12 0.00 99 1012.9
20260506224004 13 0 0.0 0.0 0.00 1.12 0.00 99 1013.0
20260506223818 13 0 0.0 0.0 0.00 1.12 0.00 99 1012.9
20260506223204 13 0 0.0 0.0 0.00 1.12 0.00 99 1013.2
20260506222805 13 0 0.0 0.0 0.00 1.12 0.00 99 1013.4
20260506222404 13 0 0.0 0.0 0.00 1.12 0.00 99 1013.2
20260506222003 13 0 0.0 0.0 0.00 1.12 0.00 99 1013.2
20260506221603 13 0 0.0 0.0 0.00 1.12 0.00 99 1013.1
20260506221204 13 0 0.0 0.0 0.00 1.12 0.00 99 1013.2
20260506220803 13 0 0.0 0.0 0.00 1.12 0.00 99 1013.1
20260506220405 13 0 0.0 0.0 0.00 1.12 0.00 99 1013.4
20260506220007 13 0 0.0 0.0 0.00 1.12 0.00 99 1013.2
20260506215816 13 0 0.0 0.0 0.00 1.12 1.12 99 1013.2
20260506215204 14 0 0.0 0.0 0.00 1.12 1.12 99 1013.3
20260506214804 14 0 0.0 0.0 0.00 1.12 1.12 99 1013.0
20260506214403 14 337 0.0 3.2 0.00 1.12 1.12 99 1013.0
20260506214214 14 337 0.0 3.2 0.00 1.12 1.12 99 1013.1
20260506213604 15 337 0.0 3.2 0.00 1.12 1.12 99 1013.0
20260506213204 15 337 0.0 3.2 0.00 1.12 1.12 99 1012.9
20260506212805 15 0 0.0 0.0 0.00 1.12 1.12 99 1012.9
20260506212404 15 0 0.0 0.0 0.00 1.12 1.12 99 1012.9
20260506212004 15 0 0.0 0.0 0.00 1.12 1.12 99 1013.0
20260506211815 15 0 0.0 0.0 0.00 1.12 1.12 99 1012.9
20260506211203 15 0 0.0 0.0 0.00 1.12 1.12 99 1013.0
20260506210804 15 0 0.0 0.0 0.00 1.12 1.12 99 1012.8
20260506210403 15 0 0.0 0.0 0.00 1.12 1.12 99 1012.7
20260506210007 15 0 0.0 0.0 0.00 1.12 1.12 99 1012.8
20260506205603 15 337 0.0 3.2 0.00 1.12 1.12 99 1013.0
20260506205203 15 337 0.0 3.2 0.00 1.12 1.12 99 1012.8
20260506205016 15 337 0.0 3.2 0.00 1.12 1.12 99 1012.7
20260506204616 15 360 0.0 3.2 0.00 1.12 1.12 99 1012.7
20260506204004 15 11 0.0 3.2 0.00 1.12 1.12 99 1012.8
20260506203814 15 11 0.0 3.2 0.00 1.12 1.12 99 1012.8
20260506203203 15 360 0.0 3.2 0.00 1.12 1.12 98 1012.7
20260506203023 15 360 0.0 3.2 0.00 1.12 1.12 98 1012.9
20260506202404 15 360 0.0 3.2 0.00 1.12 1.12 98 1012.7
20260506202003 15 360 0.0 3.2 0.00 1.12 1.12 98 1012.8
20260506201604 15 0 0.0 0.0 0.00 1.12 1.12 98 1012.8
20260506201204 16 0 0.0 0.0 0.00 1.12 1.12 98 1012.6
20260506200804 16 22 0.0 3.2 0.00 1.12 1.12 97 1012.5
20260506200413 16 22 0.0 3.2 0.00 1.12 1.12 97 1012.5
20260506200213 16 22 0.0 3.2 0.00 1.12 1.12 97 1012.6
20260506195604 16 11 0.0 3.2 0.00 1.12 1.12 97 1012.6
20260506195203 16 15 1.6 3.2 0.00 1.12 1.12 97 1012.3
20260506195021 16 21 0.0 3.2 0.00 1.12 1.12 97 1012.6
20260506194403 16 23 0.0 6.4 0.00 1.12 1.12 96 1012.3
20260506194215 16 22 1.6 6.4 0.00 1.12 1.12 96 1012.4
20260506193814 16 15 1.6 6.4 0.00 1.12 1.12 96 1012.3
20260506193203 16 351 0.0 3.2 0.00 1.12 1.12 96 1012.1
20260506192803 16 338 0.0 3.2 0.00 1.12 1.12 95 1012.2
20260506192404 16 343 1.6 3.2 0.00 1.12 1.12 95 1012.2
20260506192003 16 349 1.6 3.2 0.00 1.12 1.12 95 1012.2
20260506191603 16 343 1.6 3.2 0.00 1.12 1.12 95 1012.0
20260506191204 16 357 0.0 3.2 0.00 1.12 1.12 95 1012.1
20260506191015 16 344 0.0 3.2 0.00 1.12 1.12 95 1011.9
20260506190403 16 338 1.6 3.2 0.00 1.12 1.12 95 1012.0
20260506190009 17 344 1.6 3.2 0.00 1.12 1.12 95 1012.0
20260506185603 17 342 0.0 3.2 0.00 1.12 1.12 94 1011.9
20260506185203 17 356 0.0 6.4 0.00 1.12 1.12 94 1011.9
20260506184804 17 5 0.0 6.4 0.00 1.12 1.12 94 1011.8
20260506184404 17 12 3.2 6.4 0.00 1.12 1.12 94 1011.7
20260506184004 17 7 0.0 6.4 0.00 1.12 1.12 94 1011.7
20260506183603 17 14 1.6 6.4 0.00 1.12 1.12 93 1011.8
20260506183203 17 20 3.2 6.4 0.00 1.12 1.12 93 1011.6
20260506183014 17 18 3.2 6.4 0.00 1.12 1.12 93 1011.7
20260506182403 17 346 3.2 6.4 0.00 1.12 1.12 93 1011.5
20260506182218 17 326 4.8 6.4 0.00 1.12 1.12 93 1011.5
20260506181817 17 307 0.0 6.4 0.00 1.12 1.12 94 1011.7
20260506181203 17 309 0.0 6.4 0.00 1.12 1.12 94 1011.4
20260506180803 17 342 1.6 6.4 0.00 1.12 1.12 94 1011.6
20260506180404 17 24 3.2 6.4 0.00 1.12 1.12 94 1011.3
20260506180005 17 49 3.2 6.4 0.00 1.12 1.12 93 1011.1
20260506175814 17 53 1.6 3.2 0.00 1.12 1.12 93 1011.2
20260506175418 17 90 0.0 3.2 0.00 1.12 1.12 93 1011.1
20260506174804 17 92 0.0 6.4 0.00 1.12 1.12 92 1011.4
20260506174404 17 89 0.0 9.7 0.00 1.12 1.12 92 1011.2
20260506174003 17 78 3.2 9.7 0.00 1.12 1.12 92 1011.3
20260506173603 17 55 3.2 6.4 0.00 1.12 1.12 91 1011.3
20260506173203 17 29 1.6 3.2 0.00 1.12 1.12 91 1011.3
20260506172804 17 44 0.0 3.2 0.00 1.12 1.12 91 1011.3
20260506172403 17 61 3.2 3.2 0.00 1.12 1.12 91 1011.4
20260506172003 17 35 1.6 6.4 0.00 1.12 1.12 91 1011.6
20260506171603 17 18 0.0 6.4 0.00 1.12 1.12 91 1011.3
20260506171203 17 18 0.0 6.4 0.00 1.12 1.12 91 1011.2
20260506170804 17 58 0.0 3.2 0.00 1.12 1.12 91 1011.2
20260506170404 17 51 0.0 3.2 0.00 1.12 1.12 91 1011.1
20260506170215 17 52 1.6 3.2 0.00 1.12 1.12 91 1011.1
20260506165604 17 1 1.6 3.2 0.00 1.12 1.12 90 1011.0
20260506165204 17 348 0.0 3.2 0.00 1.12 1.12 90 1011.1
20260506164804 17 346 0.0 3.2 0.00 1.12 1.12 90 1011.1
20260506164618 17 354 3.2 3.2 0.00 1.12 1.12 90 1011.0
20260506164003 18 33 1.6 3.2 0.00 1.12 1.12 90 1011.2
20260506163603 17 87 1.6 3.2 0.00 1.12 1.12 90 1011.3
20260506163203 17 89 0.0 6.4 0.00 1.12 1.12 90 1011.2
20260506162803 17 87 0.0 6.4 0.00 1.12 1.12 90 1011.2
20260506162404 17 83 3.2 9.7 0.00 1.12 1.12 90 1011.1
20260506162214 17 82 3.2 9.7 0.00 1.12 1.12 90 1011.1
20260506161604 17 85 4.8 9.7 0.00 1.12 1.12 89 1011.3
20260506161203 17 89 3.2 9.7 0.00 1.12 1.12 88 1011.4
20260506161017 17 90 3.2 9.7 0.00 1.12 1.12 88 1011.5
20260506160403 18 88 3.2 6.4 0.00 1.12 1.12 88 1011.6
20260506160004 18 81 3.2 6.4 0.00 1.12 1.12 87 1011.2
20260506155604 18 80 1.6 6.4 0.00 1.12 1.12 87 1011.3
20260506155203 18 93 1.6 6.4 0.00 1.12 1.12 87 1011.6
20260506154804 19 88 0.0 6.4 0.00 1.12 1.12 86 1011.5
20260506154404 19 87 3.2 9.7 0.00 1.12 1.12 87 1011.4
20260506154217 18 89 0.0 9.7 0.00 1.12 1.12 89 1011.2
20260506153603 18 98 3.2 9.7 0.00 1.12 1.12 90 1011.4
20260506153204 18 97 1.6 9.7 0.00 1.12 1.12 90 1011.2
20260506152804 18 91 3.2 9.7 0.00 1.12 1.12 91 1011.2
20260506152403 17 91 3.2 9.7 0.00 1.12 1.12 92 1011.2
20260506152004 17 83 3.2 6.4 0.00 1.12 1.12 92 1011.1
20260506151603 17 82 3.2 9.7 0.00 1.12 1.12 92 1011.4
20260506151204 17 86 3.2 9.7 0.00 1.12 1.12 92 1011.3
20260506150803 17 82 3.2 9.7 0.00 1.12 1.12 91 1011.2
20260506150403 17 75 3.2 9.7 0.00 1.12 1.12 90 1011.4
20260506150004 17 81 1.6 9.7 0.00 1.12 1.12 90 1011.4
20260506145603 17 86 3.2 9.7 0.00 1.12 1.12 88 1011.4
20260506145204 17 86 1.6 9.7 0.00 1.12 1.12 89 1011.4
20260506144804 17 76 6.4 9.7 0.00 1.12 1.12 87 1011.5
20260506144404 17 58 0.0 6.4 0.00 1.12 1.12 88 1011.4
20260506144003 17 56 3.2 9.7 0.00 1.12 1.12 88 1011.4
20260506143817 17 45 0.0 9.7 0.00 1.12 1.12 89 1011.6
20260506143203 17 23 1.6 9.7 0.00 1.12 1.12 92 1011.6
20260506142803 17 55 0.0 11.3 0.00 1.12 1.12 93 1011.5
20260506142404 16 72 4.8 12.9 0.00 1.12 1.12 92 1011.4
20260506142003 16 69 3.2 12.9 0.00 1.12 1.12 93 1011.3
20260506141603 17 60 3.2 11.3 0.00 1.12 1.12 94 1011.3
20260506141203 17 53 3.2 11.3 0.00 1.12 1.12 97 1011.5
20260506140803 17 59 3.2 9.7 0.03 1.12 1.12 97 1011.5
20260506140403 17 72 3.2 9.7 0.10 1.12 1.12 98 1011.7
20260506140003 17 77 4.8 6.4 0.15 1.12 1.12 98 1011.3
20260506135603 16 61 3.2 6.4 0.30 1.12 1.12 98 1011.5
20260506135203 16 46 1.6 6.4 0.46 1.12 1.12 99 1011.5
20260506134804 17 50 3.2 6.4 0.56 1.12 1.12 99 1011.5
20260506134404 17 38 1.6 11.3 0.61 1.12 1.12 99 1011.3
20260506134004 16 39 3.2 11.3 0.61 1.12 1.12 99 1011.4
20260506133813 16 36 3.2 11.3 0.61 1.12 1.12 99 1011.7
20260506133203 17 24 0.0 6.4 0.64 1.12 1.12 99 1011.8
20260506132803 16 28 3.2 6.4 0.64 1.12 1.12 99 1011.7
20260506132403 16 38 3.2 6.4 0.64 1.12 1.12 99 1011.9
20260506132003 16 45 3.2 6.4 0.64 1.12 1.12 99 1012.0
20260506131603 16 44 3.2 6.4 0.64 1.12 1.12 99 1011.9
20260506131203 16 50 3.2 6.4 0.64 1.12 1.12 99 1011.9
20260506130803 16 71 1.6 3.2 0.61 1.09 1.09 98 1012.0
20260506130403 16 216 0.0 3.2 0.53 1.02 1.02 98 1012.1
20260506130005 16 259 0.0 3.2 0.48 0.97 0.97 98 1012.1
20260506125603 16 254 0.0 3.2 0.33 0.81 0.81 97 1012.2
20260506125203 17 70 0.0 3.2 0.18 0.66 0.66 96 1012.3
20260506124803 17 84 0.0 3.2 0.05 0.53 0.53 96 1012.1
20260506124403 17 88 1.6 3.2 0.03 0.51 0.51 95 1012.2
20260506124214 17 85 0.0 3.2 0.03 0.51 0.51 95 1012.1
20260506123603 17 68 1.6 6.4 0.00 0.48 0.48 94 1012.1
20260506123204 17 59 1.6 9.7 0.00 0.48 0.48 93 1011.8
20260506122803 17 44 1.6 9.7 0.00 0.48 0.48 93 1012.2
20260506122403 17 51 0.0 9.7 0.00 0.48 0.48 93 1011.9
20260506122003 17 57 3.2 6.4 0.00 0.48 0.48 94 1011.8
20260506121604 17 58 3.2 6.4 0.00 0.48 0.48 94 1012.0
20260506121415 17 62 3.2 6.4 0.00 0.48 0.48 94 1012.0
20260506120804 17 63 3.2 6.4 0.00 0.48 0.48 93 1012.2
20260506120403 17 74 1.6 11.3 0.00 0.48 0.48 93 1012.2
20260506120213 17 77 1.6 11.3 0.00 0.48 0.48 93 1012.2
20260506115603 17 91 1.6 11.3 0.00 0.48 0.48 92 1012.2
20260506115204 17 95 3.2 9.7 0.00 0.48 0.48 91 1012.3
20260506114803 17 92 4.8 9.7 0.00 0.48 0.48 91 1012.2
20260506114404 17 97 4.8 11.3 0.00 0.48 0.48 90 1012.4
20260506114003 17 98 1.6 11.3 0.00 0.48 0.48 90 1012.3
20260506113603 17 95 4.8 11.3 0.00 0.48 0.48 89 1012.3
20260506113204 17 92 3.2 11.3 0.00 0.48 0.48 89 1012.6
20260506112803 18 83 3.2 9.7 0.00 0.48 0.48 88 1012.5
20260506112403 17 83 3.2 11.3 0.00 0.48 0.48 89 1012.6
20260506112217 18 75 6.4 11.3 0.00 0.48 0.48 88 1012.6
20260506111816 17 69 1.6 11.3 0.00 0.48 0.48 89 1012.8
20260506111204 18 74 3.2 6.4 0.00 0.48 0.48 88 1012.5
20260506110803 18 77 1.6 9.7 0.00 0.48 0.48 89 1012.7
20260506110403 17 79 1.6 9.7 0.00 0.48 0.48 90 1012.6
20260506110004 17 78 4.8 9.7 0.00 0.48 0.48 90 1012.9
20260506105603 17 81 4.8 9.7 0.00 0.48 0.48 92 1012.7
20260506105204 16 86 3.2 6.4 0.00 0.48 0.48 93 1012.9
20260506104804 16 80 3.2 9.7 0.00 0.48 0.48 95 1013.0
20260506104616 16 81 3.2 9.7 0.00 0.48 0.48 95 1012.8
20260506104004 16 83 1.6 11.3 0.00 0.48 0.48 95 1013.0
20260506103603 16 79 1.6 11.3 0.00 0.51 0.48 94 1013.0
20260506103204 16 73 6.4 11.3 0.03 0.51 0.48 93 1012.8
20260506102803 16 57 1.6 6.4 0.03 0.51 0.48 93 1012.7
20260506102404 16 59 3.2 6.4 0.03 0.51 0.48 93 1013.0
20260506102004 16 70 1.6 6.4 0.05 0.51 0.48 95 1013.0
20260506101604 16 81 3.2 6.4 0.05 0.51 0.48 95 1013.1
20260506101203 16 91 0.0 6.4 0.10 0.51 0.48 96 1013.3
20260506100803 16 94 3.2 6.4 0.13 0.51 0.48 95 1013.2
20260506100404 16 92 0.0 6.4 0.13 0.51 0.48 97 1013.2
20260506095815 16 81 1.6 6.4 0.13 0.51 0.48 97 1009.5
20260506095203 16 86 3.2 6.4 0.13 0.51 0.48 97 1009.4
20260506094804 16 90 0.0 6.4 0.13 0.51 0.48 98 1009.4
20260506094403 16 99 3.2 6.4 0.13 0.51 0.48 98 1009.5
20260506094004 16 94 0.0 6.4 0.13 0.51 0.48 98 1009.6
20260506093603 16 94 3.2 6.4 0.13 0.51 0.48 97 1009.5
20260506093203 16 87 4.8 6.4 0.10 0.48 0.46 96 1009.6
20260506092803 16 91 1.6 6.4 0.10 0.48 0.46 96 1009.4
20260506092404 16 95 4.8 6.4 0.10 0.48 0.46 95 1009.7
20260506092004 16 95 4.8 6.4 0.05 0.46 0.43 95 1009.6
20260506091603 16 92 3.2 6.4 0.05 0.46 0.43 94 1009.7
20260506091203 16 85 3.2 6.4 0.03 0.43 0.38 93 1009.5
20260506090804 16 81 0.0 6.4 0.00 0.43 0.36 93 1009.7
20260506090403 16 79 3.2 6.4 0.00 0.43 0.36 91 1009.6
20260506090004 17 69 1.6 3.2 0.00 0.46 0.36 91 1009.4
20260506085604 17 55 0.0 3.2 0.00 0.46 0.36 90 1009.2
20260506085203 17 59 0.0 3.2 0.00 0.48 0.36 89 1009.3
20260506084803 17 86 0.0 3.2 0.00 0.48 0.36 90 1009.2
20260506084404 17 98 0.0 3.2 0.00 0.51 0.36 89 1009.1
20260506084003 17 90 0.0 3.2 0.00 0.51 0.36 88 1009.1
20260506083603 17 90 0.0 3.2 0.00 0.51 0.36 90 1009.1
20260506083203 17 90 0.0 3.2 0.00 0.51 0.36 92 1009.1
20260506082803 16 90 0.0 3.2 0.00 0.51 0.36 90 1009.2
20260506082403 16 90 0.0 3.2 0.00 0.51 0.36 92 1009.3
20260506082003 16 90 1.6 3.2 0.00 0.51 0.36 93 1009.0
20260506081814 16 90 0.0 3.2 0.00 0.51 0.36 93 1009.1
20260506081413 16 0 0.0 0.0 0.00 0.51 0.36 92 1009.1
20260506080804 16 0 0.0 0.0 0.00 0.51 0.36 95 1009.1
20260506080403 16 90 0.0 3.2 0.00 0.51 0.36 98 1009.2